Location: Great Malvern
(52.1167°N, 2.3167°W)
Time: 19:05:47
(UTC+00:00)

SPOT 5 - Pass Details

Date: 18 September 2020
Orbit: 623 x 814 km, 98.3° (Epoch: 22 October)

Event Time Altitude Azimuth Distance (km) Brightness Sun altitude
Exits shadow 22:19:22 43° 293° (WNW) 1,097 4.0 -32.2°
Drops below altitude 10° 22:23:34 10° 336° (NNW) 2,395 6.4 -32.5°
Sets 22:26:03 0° 342° (NNW) 3,343 7.4 -32.7°
